Zurück zum Katalog

DELTA 1 DEB

AktivSSO
NORAD 10644·DEBRIS·🇺🇸 United States

Gestartet Jul 29, 1976 von Vandenberg Space Force Base

Loading…

Nächste Überflüge (nächste 24 Stunden)

TLE

AktuellSource: Space-Track

Epoche: Sep 14, 2026, 09:10 UTC

1 10644U 76077E   26257.38241841 -.00000083  00000-0 -21243-3 0  9993
2 10644 101.3869 221.5632 0105831 200.0731 315.3236 12.61841654305983

Verfolge DELTA 1 DEB in Echtzeit mit AllMySat

Download on the App Store